SCP
0 0 0 0 0 0 0 0 0 0 0 0 0 0 0 0 0 0 0 0 0 0 0 0 0 0 0 0 0 0 0 0 0 0 0 0 0 0 0 0 0 0 0
0 0 0 0 0 0 0 0 0 0 0 0 0 0 0 0 0 0 0 0 0 0 0 0 0 0 0 0 0 0 0 0 0 0 0 0 0 0 0 0 0 0 0
0 0 0 0 0 0 0 0 0 0 0 0 0 0 0 0 0 0 0 0 0 0 0 0 0 0 0 0 0 0 0 0 0 0 0 0 0 0 0 0 0 0 0
0 0 0 0 0 0 0 0 0 0 0 0 0 0 0 0 0 0 0 0 0 0 0 0 0 0 0 0 0 0 0 0 0 0 0 0 0 0 0 0 0 0 0
0 0 0 0 0 0 0 0 0 0 0 0 0 0 0 0 0 0 0 0 0 0 0 0 0 0 0 0 0 0 0 0 0 0 0 0 0 0 0 0 0 0 0
0 0 0 0 0 0 0 0 0 0 0 0 0 0 0 0 0 0 0 0 0 0 0 0 0 0 0 0 0 0 0 0 0 0 0 0 0 0 0 0 0 0 0
0 0 0 0 0 0 0 0 0 0 0 0 0 0 0 0 0 0 0 0 0 0 0 0 0 0 0 0 0 0 0 0 0 0 0 0 0 0 0 0 0 0 0
0 0 0 0 0 0 0 0 0 0 0 0 0 0 0 0 0 0 0 0 0 0 0 0 0 0 0 0 0 0 0 0 0 0 0 0 0 0 0 0 0 0 0
0 0 0 0 0 0 0 0 0 0 0 0 0 0 0 0 0 0 0 0 0 0 0 0 0 0 0 0 0 0 0 0 0 0 0 0 0 0 0 0 0 0 0
0 0 0 0 0 0 0 0 0 0 0 0 0 0 0 0 0 0 0 0 0 0 0 0 0 0 0 0 0 0 0 0 0 0 0 0 0 0 0 0 0 0 0
0 0 0 0 0 0 0 0 0 0 0 0 0 0 0 0 0 0 0 0 0 0 0 0 0 0 0 0 0 0 0 0 0 0 0 0 0 0 0 0 0 0 0
0 0 0 0 0 0 0 0 0 0 0 0 0 0 0 0 0 0 0 0 0 0 0 0 0 0 0 0 0 0 0 0 0 0 0 0 0 0 0 0 0 0 0
0 0 0 0 0 0 0 0 0 0 0 0 0 0 0 0 0 0 0 0 0 0 0 0 0 0 0 0 0 0 0 0 0 0 0 0 0 0 0 0 0 0 0
0 0 0 0 0 0 0 0 0 0 0 0 0 0 0 0 0 0 0 0 0 0 0 0 0 0 0 0 0 0 0 0 0 0 0 0 0 0 0 0 0 0 0
0 0 0 0 0 0 0 0 0 0 0 0 0 0 0 0 0 0 0 0 0 0 0 0 0 0 0 0 0 0 0 0 0 0 0 0 0 0 0 0 0 0 0
0 0 0 0 0 0 0 0 0 0 0 0 0 0 0 0 0 0 0 0 0 0 0 0 0 0 0 0 0 0 0 0 0 0 0 0 0 0 0 0 0 0 0
0 0 0 0 0 0 0 0 0 0 0 0 0 0 0 0 0 0 0 0 0 0 0 0 0 0 0 0 0 0 0 0 0 0 0 0 0 0 0 0 0 0 0
0 0 0 0 0 0 0 0 0 0 0 0 0 0 0 0 0 0 0 0 0 0 0 0 0 0 0 0 0 0 0 0 0 0 0 0 0 0 0 0 0 0 0
0 0 0 0 0 0 0 0 0 0 0 0 0 0 0 0 0 0 0 0 0 0 0 0 0 0 0 0 0 0 0 0 0 0 0 0 0 0 0 0 0 0 0
0 0 0 0 0 0 0 0 0 0 0 0 0 0 0 0 0 0 0 0 0 0 0 0 0 0 0 0 0 0 0 0 0 0 0 0 0 0 0 0 0 0 0
0 0 0 0 0 0 0 0 0 0 0 0 0 0 0 0 0 0 0 0 0 0 0 0 0 0 0 0 0 0 0 0 0 0 0 0 0 0 0 0 0 0 0
0 0 0 0 0 0 0 0 0 0 0 0 0 0 0 0 0 0 0 0 0 0 0 0 0 0 0 0 0 0 0 0 0 0 0 0 0 0 0 0 0 0 0
0 0 0 -0 0 0 0 0 0 0 0 0 0 0 0 0 0 0 0 0 0 0 0 0 0 0 0 0 0 0 0 0 0 0 0 0 0 0 0 0 0 0 0
0 0 0 0 0 0 0 0 0 0 0 0 0 0 0 0 0 0 0 0 0 0 0 0 0 0 0 0 0 0 0 0 0 0 0 0 0 0 0 0 0 0 0
0 0 0 0 0 0 0 0 0 0 0 0 0 0 0 0 0 0 0 0 0 0 0 0 0 0 0 0 0 0 0 0 0 0 0 0 0 0 0 0 0 0 0
0 0 0 0 0 0 0 0 0 0 0 0 0 0 0 0 0 0 0 0 0 0 0 0 0 0 0 0 0 0 0 0 0 0 0 0 0 0 0 0 0 0 0
Wind_Speed
2 3 2 2 2 3 2 1 1 1 1 1 1 1 0 0 0 0 0 1 1 1 1 1 1 0 0 0 1 1 1 1 0 1 1 2 1 0 0 0 0 1 1
4 4 4 3 2 1 1 2 1 1 1 1 1 1 1 1 1 0 0 1 1 0 0 1 1 0 0 1 1 1 0 0 0 1 1 1 2 1 1 0 0 0 0
2 3 4 3 3 2 2 1 2 1 1 0 0 1 1 1 0 1 1 1 1 0 1 1 1 1 1 2 1 1 1 1 1 0 1 2 2 1 1 1 0 0 0
3 3 3 4 4 3 3 2 2 1 0 1 1 1 1 1 2 1 1 2 1 1 1 1 1 2 2 2 2 1 1 2 1 1 1 1 1 1 1 2 1 0 1
3 3 3 3 4 4 4 2 2 1 1 0 1 1 1 1 1 1 1 1 1 1 1 1 1 2 2 3 3 2 2 2 2 2 1 1 0 1 2 2 1 1 1
3 3 4 4 4 4 4 4 3 2 1 1 1 1 1 1 1 1 1 1 1 1 2 2 2 2 2 3 3 3 3 3 2 2 2 2 2 2 2 2 2 2 2
3 4 4 5 5 5 5 4 5 4 2 2 2 2 2 2 3 3 2 2 2 2 2 2 2 2 2 3 3 3 4 4 3 3 3 2 2 2 2 2 2 2 2
4 4 4 4 4 5 5 5 5 5 3 2 3 2 2 2 2 3 3 3 3 3 3 3 3 3 3 3 3 2 3 3 4 4 3 2 2 2 3 3 2 2 2
5 5 5 5 5 5 5 5 5 5 4 3 3 3 2 2 3 3 2 2 3 3 3 3 3 3 3 3 3 3 3 3 4 4 4 3 3 2 2 2 3 3 3
5 5 5 5 5 5 5 5 4 5 4 3 3 3 3 3 3 2 3 3 4 4 4 4 4 4 4 3 3 3 3 4 4 3 4 4 3 3 2 2 2 3 3
5 5 5 5 5 5 5 5 5 5 5 4 4 4 4 3 3 3 3 4 4 4 4 4 4 4 4 4 4 4 4 5 4 4 4 5 4 3 3 3 3 3 2
5 5 5 5 6 6 6 6 5 5 6 5 5 4 4 4 3 4 4 4 4 4 4 4 5 5 5 4 5 5 5 5 5 5 5 5 4 4 3 3 4 4 3
6 5 5 6 6 6 6 6 6 6 6 5 5 5 4 4 4 4 4 4 4 4 4 4 4 5 5 5 5 6 6 6 5 5 5 5 5 5 4 4 4 3 3
5 6 6 6 6 6 6 7 7 6 6 5 5 5 5 5 5 4 4 4 4 4 4 4 5 5 5 5 5 5 5 5 5 5 5 5 6 6 5 4 4 3 3
7 7 7 7 7 7 7 7 7 7 6 6 6 6 6 5 4 4 4 4 4 4 4 4 4 4 5 5 5 5 5 5 5 5 5 6 7 8 6 5 5 4 4
7 8 8 8 8 8 8 9 8 8 6 6 6 6 6 5 4 4 4 4 4 4 4 4 4 5 5 7 9 6 4 5 5 5 5 5 6 7 9 9 8 7 6
7 8 8 8 8 8 8 9 9 8 6 6 6 6 6 5 5 5 4 4 4 4 4 4 4 5 6 8 8 8 4 4 4 5 4 4 5 6 5 7 8 8 9
7 8 8 8 8 8 8 8 8 7 6 6 6 6 5 5 5 4 4 4 4 4 4 4 4 4 5 8 8 7 4 3 4 5 5 5 5 5 6 5 5 5 6
6 7 7 8 8 9 8 8 8 7 6 7 7 6 6 5 5 5 5 4 4 4 4 4 4 4 5 8 8 6 3 3 4 4 4 5 5 8 8 6 5 5 4
6 7 7 7 8 8 8 7 7 7 7 7 7 6 6 5 5 5 5 4 4 4 4 4 4 4 5 7 7 5 2 3 3 3 4 7 7 9 8 6 6 6 5
7 7 7 7 7 8 7 7 7 7 7 7 7 6 5 5 5 4 4 4 4 4 3 4 4 4 5 6 7 6 3 3 3 3 3 4 8 9 8 7 5 7 5
7 7 7 7 7 7 6 7 8 8 7 7 7 6 6 5 4 4 4 3 3 3 3 3 3 3 3 5 6 7 6 4 3 3 3 4 7 7 7 5 6 7 5
7 6 6 8 8 7 6 7 8 8 7 7 7 6 6 5 4 3 3 3 2 2 3 3 3 3 2 3 7 7 6 5 2 2 4 4 5 5 4 4 4 3 2
6 6 6 7 8 8 8 7 8 7 7 7 7 6 5 5 4 3 3 3 2 2 3 3 3 3 3 2 3 2 2 3 2 1 2 3 3 2 1 1 2 1 2
6 6 6 7 8 8 8 8 8 7 7 7 6 6 5 5 4 3 3 3 3 3 3 2 2 3 3 4 5 2 1 1 1 1 0 0 0 0 0 0 1 1 1
6 6 6 7 8 8 8 8 8 7 6 6 6 5 4 4 4 4 4 5 5 7 7 6 5 4 5 6 5 4 3 2 1 1 0 0 1 1 1 1 1 1 1
Wind_Direction
330 3 15 31 36 31 32 52 109 96 108 117 130 142 182 239 193 164 23 38 39 83 118 107 96 58 99 71 46 64 100 64 83 53 3 340 327 316 302 304 326 357 353
0 3 10 14 21 20 4 12 342 149 154 190 191 196 200 227 236 358 10 23 24 1 167 151 171 191 123 102 87 73 113 266 74 114 101 332 332 344 345 324 236 322 3
347 347 355 356 357 349 333 330 329 284 196 67 74 63 64 45 39 343 308 319 325 338 314 224 187 192 181 188 199 195 172 216 264 203 159 172 228 307 311 283 255 326 356
357 349 354 351 347 337 332 328 324 322 282 128 137 161 180 219 235 241 264 299 306 304 316 287 225 205 199 194 211 218 228 193 228 270 244 201 176 180 289 297 280 293 290
347 345 348 341 342 347 350 335 341 337 338 192 168 201 233 233 255 266 275 286 295 292 302 281 262 231 222 209 208 219 223 213 216 220 229 227 240 207 196 253 275 301 277
349 348 353 360 355 358 359 356 345 334 338 319 222 213 242 255 254 269 263 275 287 279 285 273 260 253 243 227 220 216 217 222 227 227 227 217 210 202 198 224 256 268 268
352 349 353 356 355 354 353 351 350 333 324 309 279 247 243 238 240 240 235 247 264 266 265 270 262 262 260 248 236 221 224 222 226 227 234 238 236 218 212 217 240 268 282
349 343 342 344 343 343 345 345 340 331 320 300 291 273 257 248 257 260 256 241 248 254 254 254 260 265 261 257 246 235 236 232 232 237 236 238 240 231 223 214 200 248 269
342 340 341 345 344 341 338 334 330 329 320 309 300 291 275 274 271 268 265 267 265 262 256 249 253 258 257 252 244 239 236 233 233 235 237 241 241 236 236 235 215 200 223
338 337 338 337 337 336 333 332 329 324 317 310 300 300 289 277 274 272 268 268 270 268 258 252 251 254 253 250 242 247 240 234 236 230 228 236 237 232 229 227 239 232 221
329 329 330 333 333 333 334 334 329 326 325 316 301 290 286 279 272 268 267 268 270 268 262 253 250 249 250 246 241 242 238 235 240 233 225 231 229 223 223 219 222 230 225
331 332 333 337 340 338 334 330 325 321 317 315 305 292 287 285 277 275 274 271 268 265 263 261 255 250 246 241 238 240 238 232 235 234 229 232 229 222 222 220 222 219 219
335 340 342 340 336 332 329 325 321 316 313 313 310 299 289 281 278 278 279 274 269 269 269 264 262 260 252 244 240 235 235 233 233 228 227 229 223 223 223 225 224 222 221
331 336 335 332 330 328 326 323 320 315 313 312 308 303 291 280 276 277 277 274 270 268 266 264 261 263 262 254 244 236 233 233 234 229 229 228 225 224 217 225 220 218 218
334 334 331 328 327 327 326 324 320 317 314 311 306 300 298 290 286 283 280 277 273 270 267 266 266 266 263 256 249 241 230 226 229 231 231 232 230 231 226 225 215 209 212
327 328 330 330 327 326 323 322 318 315 313 307 302 303 305 298 291 289 286 283 278 276 271 263 262 263 266 269 263 250 232 225 223 230 234 235 236 237 239 241 235 225 219
321 325 326 323 321 318 316 313 312 312 311 305 304 303 301 298 294 293 291 285 279 277 272 267 262 263 267 273 270 261 242 223 224 226 230 237 236 236 235 242 245 243 239
320 320 319 318 317 314 313 311 312 312 310 308 307 302 297 293 292 289 287 286 281 274 272 272 265 269 274 279 272 266 249 226 226 225 224 231 236 233 231 230 235 239 240
310 310 311 311 313 314 314 316 316 314 314 312 309 306 300 292 290 285 282 281 283 278 276 277 274 273 277 276 272 266 237 233 238 236 230 232 235 240 238 230 227 237 249
317 317 317 316 316 316 319 318 315 317 314 310 306 303 298 291 285 282 284 286 281 278 276 277 273 267 272 276 273 267 234 231 239 244 239 240 242 244 240 225 220 229 235
317 319 319 320 318 319 321 319 317 314 310 311 312 312 304 293 286 286 286 284 280 281 275 274 273 268 276 284 276 272 248 230 228 236 238 242 247 250 252 243 230 232 231
324 326 325 323 323 325 326 322 318 315 317 320 321 319 311 302 304 295 294 290 279 276 281 281 285 280 279 289 285 278 267 253 233 235 236 236 245 251 256 253 242 239 234
322 325 323 322 325 329 331 323 318 321 325 327 325 321 320 317 314 305 303 304 297 290 293 290 292 296 292 290 291 286 275 256 246 244 243 242 243 249 254 259 255 243 224
322 324 326 327 328 332 333 323 320 325 326 326 324 323 324 325 328 321 316 312 302 295 295 299 301 301 300 301 300 291 282 261 247 242 254 270 273 271 263 259 270 246 215
323 326 329 326 324 329 329 329 330 329 328 326 326 328 328 325 325 322 312 307 298 300 301 294 290 303 307 309 315 323 296 277 254 159 134 95 52 25 300 293 275 253 246
325 329 329 326 326 328 329 330 332 331 329 330 332 330 329 328 328 326 327 328 325 323 320 321 314 304 309 313 315 324 335 349 4 119 136 189 208 233 255 265 274 270 257